(160412) = 1999 FN92 = 2004 XO8

Discovered at Socorro on 2004-12-02 by LINEAR.

Orbit

Orbit type: Main Belt

Note: WebGL enabled browser required.

epoch2024-03-31.0
epoch JD2460400.5
perihelion date2025-01-08.68901
perihelion JD2460684.18901
argument of perihelion (°)309.27918
ascending node (°)78.03728
inclination (°)4.62211
eccentricity0.2141668
perihelion distance (AU)1.7786613
Tisserand w.r.t. Jupiter3.6
ΔV w.r.t. Earth (km/sec)8.3
semimajor axis (AU)2.2634083
mean anomaly (°)277.88888
mean daily motion (°/day)0.28944060
aphelion distance (AU)2.748
period (years)3.41
P-vector [x]0.88602273
P-vector [y]0.44632793
P-vector [z]0.12551934
Q-vector [x]-0.45689059
Q-vector [y]0.79448435
Q-vector [z]0.40005700
absolute magnitude16.42
phase slope0.15
uncertainty0
referenceMPEC 2024-C115
observations used845
oppositions16
arc length (days)9898
first opposition used1996
last opposition used2023
residual rms (arc-secs)0.69
perturbers coarse indicatorM-v
perturbers precise indicator003Ek
first observation date used1996-04-18.0
last observation date used2023-05-25.0
computer nameMPCLINUX
JD of orbit computation2456966.749045
perihelion JD uncertainty (days)2.3473E-05
argument of perihelion uncertainty (°)5.3326E-05
ascending node uncertainty (°)5.2713E-05
inclination uncertainty (°)3.3338E-06
eccentricity uncertainty 3.9331E-08
perihelion distance uncertainty (AU)8.9530E-08
Minimum Orbit Intersection Distances (in AU)
for orbit epoch: 2460200.5, reference: E2024-CB5
Mercury1.44319
Venus1.05454
Earth0.78726
Mars0.33566
Jupiter2.69579
Saturn6.82498
Uranus15.7947
Neptune27.9674

Observations

863 total observations over interval: 1996 04 18.40584 – 2023 05 25.299808
These data are available for download (format description).

Date (UT) J2000 RA J2000 Dec Magn Location Ref
1996 04 18.40584 15 18 11.51 -13 58 37.0   691 – Steward Observatory, Kitt Peak-Spacewatch MPS 123370
1996 04 18.43105 15 18 10.21 -13 58 32.1 20.8 V 691 – Steward Observatory, Kitt Peak-Spacewatch MPS 123370
1996 04 18.45246 15 18 09.07 -13 58 28.6   691 – Steward Observatory, Kitt Peak-Spacewatch MPS 123370
1997 10 22.13519 02 27 34.32 +06 41 33.2 17.8   704 – Lincoln Laboratory ETS, New Mexico MPS 123370
1997 10 22.14661 02 27 33.57 +06 41 30.1 17.8   704 – Lincoln Laboratory ETS, New Mexico MPS 123370
1997 10 22.16929 02 27 32.24 +06 41 29.7 17.4   704 – Lincoln Laboratory ETS, New Mexico MPS 123370
1997 10 22.18060 02 27 31.63 +06 41 28.2 17.4   704 – Lincoln Laboratory ETS, New Mexico MPS 123370
1997 10 30.38847 02 19 48.89 +06 32 46.8 18.3 V 566 – Haleakala-NEAT/GEODSS MPS 123370
1997 10 30.38929 02 19 48.86 +06 32 47.3 18.6 V 566 – Haleakala-NEAT/GEODSS MPS 123370
1997 10 30.39818 02 19 48.30 +06 32 47.2 18.6 V 566 – Haleakala-NEAT/GEODSS MPS 123370
1997 10 30.39896 02 19 48.27 +06 32 47.1 18.4 V 566 – Haleakala-NEAT/GEODSS MPS 123370
1997 10 30.40869 02 19 47.68 +06 32 45.9 18.4 V 566 – Haleakala-NEAT/GEODSS MPS 123370
1997 10 30.40959 02 19 47.58 +06 32 46.5 18.7 V 566 – Haleakala-NEAT/GEODSS MPS 123370
1999 03 21.33817 12 59 47.879 +00 57 48.34 20.39 V 645 – Apache Point-Sloan Digital Sky Survey MPS 121088
1999 03 21.338170 12 59 47.877 +00 57 48.34 20.40 V 645 – Apache Point-Sloan Digital Sky Survey MPS 121088
1999 03 21.341642 12 59 47.678 +00 57 49.60 21.22   645 – Apache Point-Sloan Digital Sky Survey MPS 121088
1999 03 22.334850 12 58 52.953 +01 03 45.91 20.32 V 645 – Apache Point-Sloan Digital Sky Survey MPS 121088
1999 03 22.338322 12 58 52.753 +01 03 47.12 21.01   645 – Apache Point-Sloan Digital Sky Survey MPS 121088
2004 12 02.33133 06 00 53.14 +23 45 13.3 18.3   704 – Lincoln Laboratory ETS, New Mexico MPS 121798
2004 12 02.34425 06 00 52.35 +23 45 16.1 18.1   704 – Lincoln Laboratory ETS, New Mexico MPS 121798
2004 12 02.36915 06 00 50.75 +23 45 22.0 18.1   704 – Lincoln Laboratory ETS, New Mexico MPS 121798
2004 12 02.38692 06 00 49.62 +23 45 26.0 18.2   704 – Lincoln Laboratory ETS, New Mexico MPS 121798
2004 12 08.30927 05 54 25.91 +24 08 00.6 17.9   704 – Lincoln Laboratory ETS, New Mexico MPS 121798
2004 12 08.32423 05 54 24.95 +24 08 04.3 19.3   704 – Lincoln Laboratory ETS, New Mexico MPS 121798
2004 12 08.34811 05 54 23.14 +24 08 09.8 18.5   704 – Lincoln Laboratory ETS, New Mexico MPS 121798
2004 12 08.36453 05 54 21.95 +24 08 13.2 18.5   704 – Lincoln Laboratory ETS, New Mexico MPS 121798
2004 12 08.37869 05 54 20.95 +24 08 16.5 18.5   704 – Lincoln Laboratory ETS, New Mexico MPS 121798
2004 12 10.27726 05 52 09.48 +24 15 12.6 18.9   704 – Lincoln Laboratory ETS, New Mexico MPS 121798
2004 12 10.28947 05 52 08.65 +24 15 15.8 18.6   704 – Lincoln Laboratory ETS, New Mexico MPS 121798
2004 12 10.30222 05 52 07.70 +24 15 18.2 20.2   704 – Lincoln Laboratory ETS, New Mexico MPS 121798
2004 12 10.31484 05 52 06.78 +24 15 20.9 18.8   704 – Lincoln Laboratory ETS, New Mexico MPS 121798
2004 12 10.32703 05 52 05.86 +24 15 22.9 18.8   704 – Lincoln Laboratory ETS, New Mexico MPS 121798
2004 12 14.26364 05 47 25.45 +24 29 09.5 18.2   704 – Lincoln Laboratory ETS, New Mexico MPS 121798
2004 12 14.27679 05 47 24.46 +24 29 12.0 18.6   704 – Lincoln Laboratory ETS, New Mexico MPS 121798
2004 12 14.29062 05 47 23.39 +24 29 15.3 18.7   704 – Lincoln Laboratory ETS, New Mexico MPS 121798
2004 12 14.30372 05 47 22.40 +24 29 17.5 18.4   704 – Lincoln Laboratory ETS, New Mexico MPS 121798
2004 12 14.31744 05 47 21.38 +24 29 20.4 18.1   704 – Lincoln Laboratory ETS, New Mexico MPS 121798
2004 12 15.28880 05 46 11.43 +24 32 33.8 18.7   704 – Lincoln Laboratory ETS, New Mexico MPS 121798
2004 12 15.30407 05 46 10.35 +24 32 37.7 18.4   704 – Lincoln Laboratory ETS, New Mexico MPS 121798
2004 12 15.31372 05 46 09.68 +24 32 39.9 18.1   704 – Lincoln Laboratory ETS, New Mexico MPS 121798
2004 12 15.31904 05 46 09.26 +24 32 40.6 18.6   704 – Lincoln Laboratory ETS, New Mexico MPS 121798
2004 12 15.32707 05 46 08.85 +24 32 44.3 19.6   704 – Lincoln Laboratory ETS, New Mexico MPS 121798
2004 12 15.33396 05 46 08.07 +24 32 43.8 18.3   704 – Lincoln Laboratory ETS, New Mexico MPS 121798
2004 12 15.34041 05 46 07.65 +24 32 45.0 18.5   704 – Lincoln Laboratory ETS, New Mexico MPS 121798
2004 12 15.35375 05 46 06.63 +24 32 47.6 18.6   704 – Lincoln Laboratory ETS, New Mexico MPS 121798
2004 12 15.37232 05 46 05.27 +24 32 49.8 19.3   704 – Lincoln Laboratory ETS, New Mexico MPS 121798
2004 12 16.26105 05 45 01.54 +24 35 46.9 18.6   704 – Lincoln Laboratory ETS, New Mexico MPS 121798
2004 12 16.27784 05 45 00.28 +24 35 49.8 19.0   704 – Lincoln Laboratory ETS, New Mexico MPS 121798
2004 12 16.29271 05 44 59.15 +24 35 53.2 19.2   704 – Lincoln Laboratory ETS, New Mexico MPS 121798
2004 12 16.30663 05 44 58.07 +24 35 56.7 18.8   704 – Lincoln Laboratory ETS, New Mexico MPS 121798
2004 12 16.32102 05 44 57.03 +24 35 59.2 18.9   704 – Lincoln Laboratory ETS, New Mexico MPS 121799
2005 01 06.28921 05 23 10.40 +25 28 22.3 19.5   704 – Lincoln Laboratory ETS, New Mexico MPS 123585
2005 01 06.30237 05 23 09.93 +25 28 22.9 19.1   704 – Lincoln Laboratory ETS, New Mexico MPS 123585
2005 01 06.31553 05 23 09.14 +25 28 22.9 19.1   704 – Lincoln Laboratory ETS, New Mexico MPS 123585
2005 01 06.32869 05 23 08.58 +25 28 26.6 19.1   704 – Lincoln Laboratory ETS, New Mexico MPS 123585
2005 01 12.28508 05 19 19.42 +25 38 35.9 19.0   704 – Lincoln Laboratory ETS, New Mexico MPS 124112
2005 01 12.29986 05 19 18.90 +25 38 37.7 19.7   704 – Lincoln Laboratory ETS, New Mexico MPS 124112
2005 01 12.31444 05 19 18.40 +25 38 39.4 19.5   704 – Lincoln Laboratory ETS, New Mexico MPS 124112
2005 01 12.32913 05 19 18.18 +25 38 38.1 19.5   704 – Lincoln Laboratory ETS, New Mexico MPS 124112
2005 01 12.34379 05 19 17.45 +25 38 41.4 19.5   704 – Lincoln Laboratory ETS, New Mexico MPS 124112
2005 02 03.17386 05 17 35.33 +26 09 25.3 19.7   704 – Lincoln Laboratory ETS, New Mexico MPS 125738
2005 02 03.18688 05 17 35.55 +26 09 25.6 20.3   704 – Lincoln Laboratory ETS, New Mexico MPS 125738
2005 02 03.19928 05 17 35.82 +26 09 26.8 20.4   704 – Lincoln Laboratory ETS, New Mexico MPS 125738
2005 02 03.22419 05 17 36.26 +26 09 29.4 19.9   704 – Lincoln Laboratory ETS, New Mexico MPS 125739
2006 03 26.35838 14 09 44.38 -07 01 15.4 20.8 V 691 – Steward Observatory, Kitt Peak-Spacewatch MPS 167096
2006 03 26.37572 14 09 43.58 -07 01 10.7 20.6 V 691 – Steward Observatory, Kitt Peak-Spacewatch MPS 167096
2006 03 26.39648 14 09 42.63 -07 01 05.3 20.7 V 691 – Steward Observatory, Kitt Peak-Spacewatch MPS 167096
2006 04 09.28003 13 57 52.88 -05 55 56.0 19.8 V G96 – Mt. Lemmon Survey MPS 168821
2006 04 09.28668 13 57 52.45 -05 55 53.6 20.2 V G96 – Mt. Lemmon Survey MPS 168821
2006 04 09.29335 13 57 52.05 -05 55 51.8 20.3 V G96 – Mt. Lemmon Survey MPS 168821
2006 04 09.29999 13 57 51.62 -05 55 49.8 19.7 V G96 – Mt. Lemmon Survey MPS 168821
2007 07 22.73515 22 49 44.88 -15 24 21.4 18.9 R D35 – Lulin Observatory MPS 212273
2007 07 22.74387 22 49 44.83 -15 24 24.2 18.8 R D35 – Lulin Observatory MPS 212273
2007 07 22.75278 22 49 44.82 -15 24 26.6 18.7 R D35 – Lulin Observatory MPS 212273
2007 07 24.82560 22 49 40.81 -15 34 48.5 18.2 R D35 – Lulin Observatory MPS 212273
2007 07 24.83449 22 49 40.73 -15 34 51.2 18.2 R D35 – Lulin Observatory MPS 212273
2007 07 24.84336 22 49 40.68 -15 34 54.0 18.2 R D35 – Lulin Observatory MPS 212273
2007 08 11.26773 22 43 37.05 -17 28 00.3 19.0   704 – Lincoln Laboratory ETS, New Mexico MPS 213631
2007 08 11.27963 22 43 36.55 -17 28 06.8 19.1   704 – Lincoln Laboratory ETS, New Mexico MPS 213631
2007 08 11.29153 22 43 36.05 -17 28 10.8 19.3   704 – Lincoln Laboratory ETS, New Mexico MPS 213632
2007 08 11.30339 22 43 35.63 -17 28 17.2 19.5   704 – Lincoln Laboratory ETS, New Mexico MPS 213632
2007 08 11.31528 22 43 35.09 -17 28 21.3 18.9   704 – Lincoln Laboratory ETS, New Mexico MPS 213632
2007 08 11.37590 22 43 32.64 -17 28 49.3 17.8 R 699 – Lowell Observatory-LONEOS MPS 213632
2007 08 11.39783 22 43 31.74 -17 28 59.5   699 – Lowell Observatory-LONEOS MPS 213632
